Location: Cerro Villa Heights
(33.8267°N, 117.8042°W)
Time: 23:05:11
(UTC+00:00)

Cosmos 1939 Rocket - Pass Details

Date: 05 August 2024
Orbit: 511 x 553 km, 97.5° (Epoch: 08 September)

Event Time Altitude Azimuth Distance (km) Brightness Sun altitude
Rises 12:08:03 0° 17° (NNE) 2,635 7.1 -11.8°
Reaches altitude 10° 12:10:11 10° 22° (NNE) 1,749 6.2 -11.4°
Maximum altitude 12:13:52 54° 100° (E) 636 3.5 -10.7°
Drops below altitude 10° 12:17:35 10° 178° (S) 1,758 5.1 -10.1°
Sets 12:19:44 0° 183° (S) 2,651 6.0 -9.7°
